Phoenix Deer Valley, AZ

1:06 PM MST on September 25, 2017 (GMT -0700)
Phoenix-Deer Valley Municipal

Weather History for KDVT - January, 2014

Change the Weather History Date:

Saturday, January 18, 2014

  Actual Average Record
Temperature  
Mean Temperature 58 °F -  
Max Temperature 72 °F 64 °F 79 °F (2000)
Min Temperature 45 °F 44 °F 33 °F (2008)
Degree Days  
Heating Degree Days 6    
Growing Degree Days 8 (Base 50)    
Moisture  
Dew Point 20 °F    
Average Humidity 24    
Maximum Humidity 36    
Minimum Humidity 12    
Precipitation  
Precipitation 0.00 in - - ()
Sea Level Pressure  
Sea Level Pressure 30.06 in    
Wind  
Wind Speed 4 mph (North)    
Max Wind Speed 9 mph    
Max Gust Speed -    
Visibility 10 miles    
Events      
Averages and records for this station are not official NWS values.
T = Trace of Precipitation, MM = Missing Value Source: NWS Daily Summary

Daily Weather History Graph

Daily Weather History Graph

Search for Another Location

Airport or City:

Trip Planner

Search our weather history database for the weather conditions in past years. The results will help you decide how hot, cold, wet, or windy it might be!

Date:

Astronomy

Jan. 18, 2014 Rise Set
Actual Time 7:32 AM MST 5:45 PM MST
Civil Twilight 7:05 AM MST 6:12 PM MST
Nautical Twilight 6:34 AM MST 6:43 PM MST
Astronomical Twilight 6:04 AM MST 7:13 PM MST
Moon 8:21 PM MST (1/18) 8:42 AM MST (1/18)
Length of Visible Light 11h 07m
Length of Day
10h 13m
Waning Gibbous, 94% of the Moon is Illuminated
Jan 18
Waning Gibbous
Jan 23
Last Quarter
Jan 30
New
Feb 6
First Quarter
Feb 14
Full

Hourly Weather History & Observations

Time (MST) Temp. Dew Point Humidity Pressure Visibility Wind Dir Wind Speed Gust Speed Precip Events Conditions
12:53 AM 54.0 °F 19.0 °F 25% 30.03 in 10.0 mi NNE 8.1 mph - N/A   Clear
1:53 AM 51.1 °F 19.0 °F 28% 30.04 in 10.0 mi Calm Calm - N/A   Clear
2:53 AM 52.0 °F 17.1 °F 25% 30.04 in 10.0 mi NNE 5.8 mph - N/A   Clear
3:53 AM 48.0 °F 18.0 °F 30% 30.04 in 10.0 mi East 4.6 mph - N/A   Clear
4:53 AM 51.1 °F 16.0 °F 25% 30.04 in 10.0 mi NNE 6.9 mph - N/A   Clear
5:53 AM 46.0 °F 19.0 °F 34% 30.06 in 10.0 mi Calm Calm - N/A   Clear
6:53 AM 50.0 °F 16.0 °F 26% 30.06 in 10.0 mi NNE 9.2 mph - N/A   Clear
7:53 AM 45.0 °F 19.0 °F 36% 30.08 in 10.0 mi Calm Calm - N/A   Clear
8:53 AM 52.0 °F 19.9 °F 28% 30.10 in 10.0 mi NNE 5.8 mph - N/A   Clear
9:53 AM 57.9 °F 21.0 °F 24% 30.12 in 10.0 mi Calm Calm - N/A   Clear
10:53 AM 62.1 °F 21.0 °F 21% 30.12 in 10.0 mi SSW 3.5 mph - N/A   Clear
11:53 AM 64.9 °F 19.0 °F 17% 30.09 in 10.0 mi Calm Calm - N/A   Clear
12:53 PM 68.0 °F 18.0 °F 15% 30.06 in 10.0 mi South 5.8 mph - N/A   Clear
1:53 PM 70.0 °F 19.0 °F 14% 30.04 in 10.0 mi South 3.5 mph - N/A   Clear
2:53 PM 71.1 °F 17.1 °F 13% 30.02 in 10.0 mi Calm Calm - N/A   Clear
3:53 PM 72.0 °F 17.1 °F 12% 30.02 in 10.0 mi SW 3.5 mph - N/A   Clear
4:53 PM 71.1 °F 19.9 °F 14% 30.01 in 10.0 mi NW 3.5 mph - N/A   Clear
5:53 PM 66.9 °F 21.0 °F 17% 30.02 in 10.0 mi NW 3.5 mph - N/A   Clear
6:53 PM 60.1 °F 23.0 °F 24% 30.04 in 10.0 mi Calm Calm - N/A   Clear
7:53 PM 57.9 °F 23.0 °F 26% 30.05 in 10.0 mi Calm Calm - N/A   Clear
8:53 PM 57.0 °F 23.0 °F 27% 30.06 in 10.0 mi Calm Calm - N/A   Clear
9:53 PM 57.9 °F 23.0 °F 26% 30.07 in 10.0 mi NNE 9.2 mph - N/A   Clear
10:53 PM 54.0 °F 21.9 °F 29% 30.08 in 10.0 mi Variable 3.5 mph - N/A   Clear
11:53 PM 50.0 °F 24.1 °F 36% 30.07 in 10.0 mi Calm Calm - N/A   Clear